SWA4164 KSAT-KLAX

Flight info

Callsign SWA4164
Flight time N/A
Altitude 38000
Route ALISS7 ALISS FST ELP J50 SSO J4 WLVRN ESTWD HLYWD1
Aircraft B38M/M-SDE1FGHILORVWXY/HB1

Departure

Time 2026-05-09 00:34
Airport San Antonio International Airport (KSAT)

Arrival

Time N/A
Airport Los Angeles International Airport (KLAX)
Time Latitude Longitude Altitude Speed Heading
2026-05-08 23:38 29.52711 -98.47124 801 ft 0 kts 148°
2026-05-09 00:24 29.52722 -98.47131 801 ft 4 kts 155°
2026-05-09 00:25 29.52747 -98.47140 801 ft 4 kts 169°
2026-05-09 00:25 29.52763 -98.47146 801 ft 2 kts 104°
2026-05-09 00:25 29.52765 -98.47140 801 ft 4 kts 74°
2026-05-09 00:25 29.52783 -98.47122 801 ft 4 kts 32°
2026-05-09 00:26 29.52805 -98.47105 801 ft 4 kts 37°
2026-05-09 00:26 29.52821 -98.47088 801 ft 0 kts 45°
2026-05-09 00:29 29.52822 -98.47087 801 ft 0 kts 41°
2026-05-09 00:30 29.52829 -98.47080 801 ft 3 kts 41°
2026-05-09 00:30 29.52854 -98.47052 801 ft 8 kts 56°
2026-05-09 00:30 29.52828 -98.46980 801 ft 14 kts 132°
2026-05-09 00:31 29.52754 -98.46888 801 ft 17 kts 131°
2026-05-09 00:31 29.52656 -98.46838 801 ft 17 kts 203°
2026-05-09 00:31 29.52559 -98.46927 801 ft 19 kts 220°
2026-05-09 00:31 29.52466 -98.47018 801 ft 12 kts 220°
2026-05-09 00:32 29.52424 -98.47059 801 ft 6 kts 220°
2026-05-09 00:32 29.52399 -98.47066 801 ft 1 kts 156°
2026-05-09 00:32 29.52398 -98.47065 801 ft 0 kts 152°
2026-05-09 00:32 29.52397 -98.47064 801 ft 1 kts 152°
2026-05-09 00:33 29.52380 -98.47047 801 ft 8 kts 133°
2026-05-09 00:33 29.52347 -98.46970 801 ft 11 kts 72°
2026-05-09 00:33 29.52423 -98.46891 801 ft 33 kts 40°
2026-05-09 00:33 29.52782 -98.46540 801 ft 101 kts 40°
2026-05-09 00:34 29.53425 -98.45908 801 ft 152 kts 41°
2026-05-09 00:34 29.54307 -98.45017 1027 ft 180 kts 43°
2026-05-09 00:34 29.55281 -98.44035 1603 ft 191 kts 42°
2026-05-09 00:34 29.56317 -98.43051 2293 ft 195 kts 39°
2026-05-09 00:35 29.57513 -98.42280 2901 ft 203 kts 22°
2026-05-09 00:35 29.58882 -98.41965 3255 ft 221 kts 358°
2026-05-09 00:35 29.60412 -98.42380 3522 ft 245 kts 330°
2026-05-09 00:35 29.61674 -98.43742 4197 ft 246 kts 303°
2026-05-09 00:36 29.62758 -98.45307 4769 ft 263 kts 308°
2026-05-09 00:36 29.63983 -98.46936 5356 ft 274 kts 308°
2026-05-09 00:36 29.65236 -98.48609 6164 ft 277 kts 308°
2026-05-09 00:36 29.66497 -98.50298 6941 ft 279 kts 308°
2026-05-09 00:37 29.67763 -98.51998 7703 ft 281 kts 308°
2026-05-09 00:37 29.69038 -98.53711 8458 ft 283 kts 307°
2026-05-09 00:37 29.70280 -98.55381 9216 ft 285 kts 307°
2026-05-09 00:37 29.71573 -98.57119 9953 ft 287 kts 307°
2026-05-09 00:38 29.72891 -98.58893 10453 ft 299 kts 307°
2026-05-09 00:38 29.74284 -98.60761 10826 ft 314 kts 307°
2026-05-09 00:38 29.75729 -98.62701 11332 ft 322 kts 307°
2026-05-09 00:38 29.77193 -98.64674 12086 ft 325 kts 307°
2026-05-09 00:39 29.78672 -98.66670 12783 ft 330 kts 307°
2026-05-09 00:39 29.80166 -98.68687 13524 ft 333 kts 307°
2026-05-09 00:39 29.81678 -98.70730 14207 ft 337 kts 307°
2026-05-09 00:39 29.83200 -98.72788 14969 ft 338 kts 306°
2026-05-09 00:40 29.84726 -98.74854 15722 ft 340 kts 306°
2026-05-09 00:40 29.86261 -98.76931 16449 ft 341 kts 306°
2026-05-09 00:40 29.87805 -98.79022 17185 ft 343 kts 306°
2026-05-09 00:41 29.90853 -98.83296 18502 ft 347 kts 304°
2026-05-09 00:41 29.92388 -98.85464 19074 ft 350 kts 304°
2026-05-09 00:41 29.93934 -98.87646 19670 ft 353 kts 304°
2026-05-09 00:41 29.95490 -98.89842 20236 ft 355 kts 304°
2026-05-09 00:42 29.97057 -98.92054 20805 ft 358 kts 303°
2026-05-09 00:42 29.98640 -98.94289 21344 ft 361 kts 303°
2026-05-09 00:42 30.00233 -98.96541 21894 ft 363 kts 303°
2026-05-09 00:42 30.01813 -98.98776 22428 ft 366 kts 303°
2026-05-09 00:43 30.03431 -99.01064 22962 ft 369 kts 303°
2026-05-09 00:43 30.05055 -99.03363 23490 ft 372 kts 302°
2026-05-09 00:43 30.06695 -99.05686 23924 ft 374 kts 302°
2026-05-09 00:43 30.08346 -99.08026 24360 ft 377 kts 302°
2026-05-09 00:44 30.10002 -99.10381 24777 ft 379 kts 301°
2026-05-09 00:44 30.11282 -99.12970 25160 ft 368 kts 283°
2026-05-09 00:44 30.12025 -99.15795 25515 ft 370 kts 281°
2026-05-09 00:44 30.12784 -99.18645 25900 ft 373 kts 282°
2026-05-09 00:45 30.13559 -99.21505 26335 ft 374 kts 281°
2026-05-09 00:45 30.14335 -99.24385 26738 ft 377 kts 281°
2026-05-09 00:45 30.15116 -99.27287 27125 ft 379 kts 281°
2026-05-09 00:45 30.15898 -99.30195 27523 ft 381 kts 281°
2026-05-09 00:46 30.16685 -99.33125 27908 ft 383 kts 281°
2026-05-09 00:46 30.17473 -99.36067 28294 ft 385 kts 280°
2026-05-09 00:46 30.18252 -99.38973 28661 ft 387 kts 280°
2026-05-09 00:46 30.19049 -99.41951 29024 ft 389 kts 280°
2026-05-09 00:47 30.19850 -99.44948 29402 ft 391 kts 280°
2026-05-09 00:47 30.20656 -99.47965 29771 ft 393 kts 279°
2026-05-09 00:47 30.21464 -99.50989 30085 ft 395 kts 279°
2026-05-09 00:47 30.22276 -99.54033 30405 ft 397 kts 279°
2026-05-09 00:48 30.23088 -99.57084 30728 ft 398 kts 279°
2026-05-09 00:48 30.23897 -99.60126 31042 ft 399 kts 279°
2026-05-09 00:48 30.24716 -99.63205 31350 ft 401 kts 279°
2026-05-09 00:48 30.25536 -99.66294 31664 ft 403 kts 279°
2026-05-09 00:49 30.26359 -99.69398 31965 ft 404 kts 279°
2026-05-09 00:49 30.27180 -99.72498 32351 ft 403 kts 279°
2026-05-09 00:49 30.28000 -99.75597 32758 ft 402 kts 279°
2026-05-09 00:49 30.28540 -99.77639 33047 ft 400 kts 279°
2026-05-09 00:50 30.29349 -99.80701 33484 ft 398 kts 279°
2026-05-09 00:50 30.30156 -99.83759 33910 ft 396 kts 279°
2026-05-09 00:50 30.30957 -99.86797 34284 ft 393 kts 279°
2026-05-09 00:50 30.31753 -99.89819 34653 ft 391 kts 279°
2026-05-09 00:51 30.32541 -99.92815 35011 ft 388 kts 278°
2026-05-09 00:51 30.33325 -99.95800 35366 ft 386 kts 278°
2026-05-09 00:51 30.34103 -99.98760 35691 ft 384 kts 278°
2026-05-09 00:51 30.34875 -100.01707 36007 ft 382 kts 278°
2026-05-09 00:52 30.35646 -100.04647 36322 ft 380 kts 278°
2026-05-09 00:52 30.36410 -100.07570 36623 ft 378 kts 278°
2026-05-09 00:52 30.37173 -100.10482 36902 ft 377 kts 278°
2026-05-09 00:52 30.37929 -100.13379 37164 ft 375 kts 278°
2026-05-09 00:53 30.38684 -100.16271 37416 ft 374 kts 278°
2026-05-09 00:53 30.39432 -100.19142 37660 ft 372 kts 278°
2026-05-09 00:53 30.40180 -100.22014 37807 ft 372 kts 278°
2026-05-09 00:53 30.40926 -100.24881 37800 ft 371 kts 277°
2026-05-09 00:54 30.42409 -100.30586 37817 ft 370 kts 277°
2026-05-09 00:54 30.43890 -100.36300 37838 ft 371 kts 278°
2026-05-09 00:55 30.45377 -100.42044 37864 ft 372 kts 278°
2026-05-09 00:55 30.46863 -100.47801 37890 ft 374 kts 278°
2026-05-09 00:56 30.48353 -100.53581 37914 ft 375 kts 278°
2026-05-09 00:56 30.49701 -100.58824 37919 ft 376 kts 278°
2026-05-09 00:57 30.51194 -100.64636 37926 ft 377 kts 278°
2026-05-09 00:57 30.52688 -100.70468 37937 ft 378 kts 278°
2026-05-09 00:58 30.54182 -100.76309 37933 ft 379 kts 278°
2026-05-09 00:58 30.55667 -100.82129 37919 ft 379 kts 278°
2026-05-09 00:59 30.57163 -100.88006 37897 ft 380 kts 278°
2026-05-09 00:59 30.58661 -100.93901 37877 ft 381 kts 278°
2026-05-09 01:00 30.60159 -100.99808 37888 ft 382 kts 278°
2026-05-09 01:00 30.61659 -101.05733 37904 ft 383 kts 278°
2026-05-09 01:01 30.63159 -101.11677 37923 ft 384 kts 278°
2026-05-09 01:01 30.64661 -101.17636 37934 ft 384 kts 278°
2026-05-09 01:02 30.66162 -101.23605 37930 ft 385 kts 278°
2026-05-09 01:02 30.67661 -101.29578 37934 ft 386 kts 278°
2026-05-09 01:03 30.69161 -101.35570 37918 ft 386 kts 278°
2026-05-09 01:03 30.70661 -101.41574 37893 ft 388 kts 278°
2026-05-09 01:04 30.72163 -101.47601 37869 ft 389 kts 278°
2026-05-09 01:04 30.73670 -101.53658 37851 ft 391 kts 278°
2026-05-09 01:05 30.75171 -101.59703 37822 ft 392 kts 278°
2026-05-09 01:06 30.77437 -101.68855 37809 ft 394 kts 278°
2026-05-09 01:06 30.78951 -101.74991 37805 ft 395 kts 278°
2026-05-09 01:07 30.80466 -101.81139 37805 ft 396 kts 278°
2026-05-09 01:07 30.81979 -101.87295 37800 ft 396 kts 279°
2026-05-09 01:08 30.83492 -101.93467 37799 ft 397 kts 279°
2026-05-09 01:08 30.85005 -101.99653 37804 ft 398 kts 279°
2026-05-09 01:09 30.86518 -102.05849 37814 ft 399 kts 279°
2026-05-09 01:09 30.88031 -102.12061 37806 ft 399 kts 279°
2026-05-09 01:10 30.89544 -102.18286 37804 ft 400 kts 279°
2026-05-09 01:10 30.91049 -102.24492 37806 ft 401 kts 279°
2026-05-09 01:11 30.92561 -102.30747 37808 ft 402 kts 279°
2026-05-09 01:11 30.94077 -102.37026 37804 ft 403 kts 279°
2026-05-09 01:12 30.95594 -102.43327 37808 ft 404 kts 279°
2026-05-09 01:12 30.97109 -102.49634 37797 ft 405 kts 280°
2026-05-09 01:13 30.98626 -102.55965 37826 ft 406 kts 280°